Weather Roundup
Issued by NWS

Home | Current Version | Previous Version | Text Only | Print | Product List | Glossary On
Versions: 1 2 3 4 5 6 7 8 9 10 11 12 13 14 15 16 17 18 19 20 21 22 23 24 25 26 27 28 29 30 31 32 33 34 35 36 37 38 39 40 41 42 43 44 45 46 47 48 49 50
000
NZUS93 KARX 291110
HRRWXR

CURRENT HOURLY OBSERVATIONS ACROSS
MUCH OF THE UPPER MISSISSIPPI VALLEY
NATIONAL WEATHER SERVICE LA CROSSE WI
600 AM CDT SUN MAR 29 2015


...SOUTHEAST MINNESOTA...


CITY           SKY/WX    TMP DP  RH WIND       PRES   REMARKS
ROCHESTER      FRZ RAIN  33  27  78 S29G36    29.74F WCI  19
ROCHESTER/MAYO CLOUDY    32  28  83 S15G22    29.75F WCI  22
WINONA         CLOUDY    36  23  60 S9G21     29.84S WCI  29
AUSTIN         MIX PCPN  34  28  80 S17       29.75F WCI  23
ALBERT LEA     CLOUDY    34  34 100 S21G30    29.72F WCI  22
DODGE CENTER   MIX PCPN  34  30  86 S21       29.70F WCI  22
PRESTON        MIX PCPN  32  26  78 S21G30    29.80F WCI  19
OWATONNA       CLOUDY    34  28  80 S18       29.70F WCI  23
FARIBAULT      CLOUDY    36  30  80 S15G21    29.71F WCI  26
$$

...ELSEWHERE IN MINNESOTA...


CITY           SKY/WX    TMP DP  RH WIND       PRES   REMARKS
MINNEAPOLIS    CLOUDY    35  29  78 S16       29.70F WCI  25
INTNL FALLS    LGT RAIN  35  32  88 VRB5      29.42F WCI  31
DULUTH         LGTSLEET  35  25  66 SW22G31   29.56F WCI  23
RED WING       MIX PCPN  34  28  80 S8        29.75F WCI  27
REDWOOD FALLS  MOCLDY    40  33  76 S17       29.62F WCI  31
MANKATO        MOCLDY    36  27  69 S22       29.70F WCI  24
WORTHINGTON    PTCLDY    39  32  75 SW18G25   29.69S WCI  30
FAIRMONT       CLOUDY    36  28  75 S20       29.71S WCI  25
$$

...SOUTHWEST WISCONSIN...


CITY           SKY/WX    TMP DP  RH WIND       PRES   REMARKS
LA CROSSE      MOCLDY    36  20  52 S17G33    29.89F WCI  26
PRAIRIE DU CHI MOCLDY    34  19  54 SE12G20   29.92F WCI  25
BOSCOBEL       MOCLDY    34  18  52 S8G17     29.96F WCI  27
LONE ROCK      PTCLDY    31  18  58 S8        30.02S WCI  23
PLATTEVILLE    PTCLDY    31  20  65 S15       30.01F WCI  20
FORT MC COY    MOCLDY    33  18  52 S16       29.88F WCI  23
CAMP DOUGLAS   MOCLDY    32  18  54 S13       29.92F WCI  23
VIROQUA        FAIR      31  20  63 S14G22    29.87F WCI  21
WIS DELLS      PTCLDY    31  17  56 S13       29.98F WCI  21
$$

...ELSEWHERE IN WISCONSIN...


CITY           SKY/WX    TMP DP  RH WIND       PRES   REMARKS
MILWAUKEE      MOCLDY    30  14  51 S10       30.08F WCI  21
MADISON        MOCLDY    31  18  58 S12G22    30.03S WCI  22
GREEN BAY      MOCLDY    32  19  58 S18G24    30.00F WCI  20
EAU CLAIRE     CLOUDY    35  18  49 S13       29.78F WCI  26
BLACK RVR FLS  FAIR      34  16  48 S12       29.86F WCI  25
MEDFORD        PTCLDY    29  18  63 S14       29.84F WCI  18
WAUSAU         PTCLDY    30  15  53 S13       29.89F WCI  20
WIS RAPIDS     PTCLDY    31  14  49 S10       29.95F WCI  22
MARSHFIELD     PTCLDY    30  16  56 S14       29.87F WCI  19
RICE LAKE      MIX PCPN  33  24  69 S16G23    29.74F WCI  23
$$

...NORTHEAST IOWA...


CITY           SKY/WX    TMP DP  RH WIND       PRES   REMARKS
DECORAH        MIX PCPN  32  23  69 S16G23    29.89R WCI  21
MASON CITY     CLOUDY    34  28  79 S23G31    29.77F WCI  22
CHARLES CITY   LGT SNOW  32  30  93 S22G30    29.83F WCI  19
OELWEIN        CLOUDY    32  25  74 S22G31    29.92R WCI  19
$$

...ELSEWHERE IN IOWA...


CITY           SKY/WX    TMP DP  RH WIND       PRES   REMARKS
DES MOINES     RAIN      39  32  76 S15       29.88R WCI  31
IOWA CITY      PTCLDY    33  23  66 SE15      30.02F WCI  23
FORT DODGE     CLOUDY    37  30  75 S16G24    29.80S WCI  28
$$

...NORTHERN ILLINOIS...


CITY           SKY/WX    TMP DP  RH WIND       PRES   REMARKS
CHICAGO-OHARE  MOCLDY    30  14  51 S13       30.13F WCI  20
CHICAGO-MIDWAY MOCLDY    31  15  52 S10       30.16F WCI  22
MOLINE         CLEAR     33  19  56 S10       30.08R WCI  25
ROCKFORD       PTCLDY    29  18  63 S14       30.10F WCI  18
PEORIA         CLEAR     31  21  66 S16G24    30.12F WCI  20
$$

NOTE: "FAIR" INDICATES FEW OR NO CLOUDS BELOW 12,000 FEET WITH NO
SIGNIFICANT WEATHER AND/OR OBSTRUCTIONS TO VISIBILITY. WIND
SPEEDS ARE IN MILES-PER-HOUR.



USA.gov is the U.S. government's official web portal to all federal, state and local government web resources and services.